This demonstration page uses our WeatherBlox Daily Observations layout. Learn more.

Left ArrowRight Arrow

Hourly Observations for May 30, 2015

Temp ( °F °C ) Dew Point ( °F °C ) Humidity (%) Winds ( mph kmh ) Pressure ( in mb ) Visibility ( mi km ) Precip ( " mm )
12:53 am 00:53 Clear 72 22.2 65 18.3 79 79 E 7 11 29.88 1012 10 16 0.00 0.00
1:53 am 01:53 Clear 72 22.2 66 18.9 82 82 ESE 12 19 29.88 1012 10 16 0.00 0.00
2:34 am 02:34 Mostly Cloudy 71 21.7 62 16.7 73 73 E 18 30 29.91 1013 10 16 0.00 0.00
2:53 am 02:53 Cloudy 71 21.7 60 15.6 68 68 ENE 20 31 29.90 1013 10 16 0.00 0.00
3:37 am 03:37 Cloudy 68 20 54 12.2 61 61 E 10 17 29.91 1013 10 16 0.00 0.00
3:53 am 03:53 Mostly Cloudy 68 20 54 12.2 61 61 E 12 19 29.91 1013 10 16 0.00 0.00
4:53 am 04:53 Partly Cloudy 67 19.4 53 11.7 61 61 E 8 13 29.92 1013 10 16 0.00 0.00
5:24 am 05:24 Cloudy with Nearby Thunderstorms 64 18 54 12 68 68 NNW 37 59 30.06 1018 10 16 0.00 0.00
5:42 am 05:42 Cloudy with Strong Thunderstorms 57 14 54 12 88 88 N 24 39 30.15 1021 4 6 0.00 0.00
5:53 am 05:53 Cloudy with Thunderstorms 58 14.4 54 12.2 87 87 NNE 23 37 30.03 1017 5 8 0.10 2.54
6:23 am 06:23 Cloudy with Nearby Thunderstorms 60 15.6 56 13.3 86 86 NE 20 31 30.12 1020 10 16 0.04 1.02
6:53 am 06:53 Cloudy with Light Rain 61 16.1 55 12.8 81 81 NE 22 35 30.06 1018 10 16 0.07 1.78
7:39 am 07:39 Cloudy with Nearby Thunderstorms 62 16.7 55 12.8 78 78 E 20 31 30.06 1018 10 16 0.03 0.76
7:53 am 07:53 Cloudy with Nearby Thunderstorms 61 16.1 56 13.3 84 84 E 29 46 29.94 1014 10 16 0.04 1.02
8:06 am 08:06 Partly Cloudy 63 17.2 55 12.8 76 76 E 21 33 30.00 1016 10 16 0.00 0.03
8:53 am 08:53 Cloudy 64 17.8 57 13.9 78 78 WSW 5 7 30.05 1018 10 16 0.00 0.03
9:53 am 09:53 Sunny 66 18.9 58 14.4 75 75 WNW 12 19 30.09 1019 10 16 0.00 0.00
10:53 am 10:53 Sunny 72 22.2 57 13.9 59 59 NW 13 20 30.07 1018 10 16 0.00 0.00
11:53 am 11:53 Sunny 73 22.8 55 12.8 53 53 NNW 6 9 30.06 1018 10 16 0.00 0.00
12:53 pm 12:53 Sunny 75 23.9 55 12.8 50 50 NNE 7 11 30.06 1018 10 16 0.00 0.00
1:53 pm 13:53 Sunny 77 25 56 13.3 48 48 NNE 9 15 30.04 1017 10 16 0.00 0.00
2:53 pm 14:53 Mostly Sunny 80 26.7 55 12.8 42 42 ENE 10 17 30.03 1017 10 16 0.00 0.00
3:53 pm 15:53 Partly Cloudy 80 26.7 57 13.9 45 45 ENE 13 20 30.02 1017 10 16 0.00 0.00
4:53 pm 16:53 Mostly Sunny 81 27.2 56 13.3 42 42 NE 9 15 30.01 1016 10 16 0.00 0.00
5:53 pm 17:53 Partly Cloudy 81 27.2 55 12.8 41 41 NE 12 19 30.01 1016 10 16 0.00 0.00
6:53 pm 18:53 Mostly Sunny 80 26.7 56 13.3 44 44 E 10 17 29.99 1016 10 16 0.00 0.00
7:53 pm 19:53 Partly Cloudy 78 25.6 56 13.3 47 47 ESE 9 15 29.99 1016 10 16 0.00 0.00
8:53 pm 20:53 Clear 74 23.3 57 13.9 56 56 E 9 15 30.01 1016 10 16 0.00 0.00
9:53 pm 21:53 Clear 71 21.7 60 15.6 68 68 E 9 15 30.04 1017 10 16 0.00 0.00
10:53 pm 22:53 Clear 69 20.6 60 15.6 73 73 E 10 17 30.06 1018 10 16 0.00 0.00
11:53 pm 23:53 Clear 66 18.9 60 15.6 81 81 E 10 17 30.07 1018 10 16 0.00 0.00

Powered by AerisWeather